| time (UTC) | temp F | wind direction | speed knots | gust knots | rain 1hr in | rain 24hr in | rain mn in | humidity % | barometer mb |
| 20260506013604 | 75 | 194 | 1.7 | 13.0 | 0.00 | 0.00 | 0.00 | 48 | 1008.8 |
| 20260506012604 | 75 | 228 | 1.7 | 12.2 | 0.00 | 0.00 | 0.00 | 47 | 1008.8 |
| 20260506011604 | 75 | 208 | 4.3 | 9.6 | 0.00 | 0.00 | 0.00 | 47 | 1008.8 |
| 20260506010604 | 76 | 208 | 7.0 | 13.0 | 0.00 | 0.00 | 0.00 | 46 | 1008.7 |
| 20260506005604 | 76 | 219 | 0.9 | 13.0 | 0.00 | 0.00 | 0.00 | 45 | 1008.5 |
| 20260506004604 | 76 | 199 | 0.9 | 9.6 | 0.00 | 0.00 | 0.00 | 44 | 1008.5 |
| 20260506002604 | 77 | 218 | 3.5 | 10.4 | 0.00 | 0.00 | 0.00 | 41 | 1008.2 |
| 20260506001604 | 77 | 216 | 1.7 | 7.8 | 0.00 | 0.00 | 0.00 | 40 | 1008.0 |
| 20260506000625 | 77 | 240 | 0.9 | 13.0 | 0.00 | 0.00 | 0.00 | 40 | 1008.0 |
| 20260505235626 | 78 | 220 | 6.1 | 12.2 | 0.00 | 0.00 | 0.00 | 39 | 1007.8 |
| 20260505233604 | 78 | 199 | 0.9 | 7.0 | 0.00 | 0.00 | 0.00 | 38 | 1007.8 |
| 20260505232604 | 78 | 225 | 0.9 | 13.0 | 0.00 | 0.00 | 0.00 | 38 | 1007.8 |
| 20260505231604 | 79 | 206 | 0.9 | 12.2 | 0.00 | 0.00 | 0.00 | 37 | 1007.6 |
| 20260505230604 | 79 | 230 | 3.5 | 13.0 | 0.00 | 0.00 | 0.00 | 36 | 1007.3 |
| 20260505225604 | 79 | 217 | 4.3 | 12.2 | 0.00 | 0.00 | 0.00 | 36 | 1007.2 |
| 20260505224604 | 79 | 216 | 4.3 | 14.8 | 0.00 | 0.00 | 0.00 | 35 | 1007.3 |
| 20260505223626 | 80 | 219 | 6.1 | 14.8 | 0.00 | 0.00 | 0.00 | 34 | 1007.1 |
| 20260505222603 | 81 | 238 | 3.5 | 17.4 | 0.00 | 0.00 | 0.00 | 34 | 1007.1 |
| 20260505221604 | 81 | 256 | 5.2 | 15.6 | 0.00 | 0.00 | 0.00 | 33 | 1007.0 |
| 20260505220604 | 81 | 216 | 3.5 | 19.1 | 0.00 | 0.00 | 0.00 | 33 | 1007.0 |
| 20260505215604 | 82 | 228 | 7.0 | 17.4 | 0.00 | 0.00 | 0.00 | 34 | 1006.9 |
| 20260505214604 | 81 | 255 | 2.6 | 20.0 | 0.00 | 0.00 | 0.00 | 34 | 1006.9 |
| 20260505213604 | 81 | 202 | 7.0 | 25.2 | 0.00 | 0.00 | 0.00 | 34 | 1006.8 |
| 20260505212605 | 81 | 222 | 9.6 | 27.8 | 0.00 | 0.00 | 0.00 | 34 | 1006.5 |
| 20260505211603 | 82 | 216 | 11.3 | 20.0 | 0.00 | 0.00 | 0.00 | 35 | 1006.4 |
| 20260505210625 | 82 | 195 | 7.8 | 20.0 | 0.00 | 0.00 | 0.00 | 36 | 1006.5 |
| 20260505205604 | 82 | 240 | 3.5 | 13.9 | 0.00 | 0.00 | 0.00 | 35 | 1006.4 |
| 20260505204604 | 82 | 204 | 6.1 | 22.6 | 0.00 | 0.00 | 0.00 | 36 | 1006.5 |
| 20260505203604 | 82 | 222 | 6.1 | 19.1 | 0.00 | 0.00 | 0.00 | 35 | 1006.8 |
| 20260505202604 | 83 | 186 | 5.2 | 18.2 | 0.00 | 0.00 | 0.00 | 34 | 1006.8 |
| 20260505200604 | 83 | 207 | 4.3 | 22.6 | 0.00 | 0.00 | 0.00 | 35 | 1006.8 |
| 20260505195603 | 83 | 220 | 7.0 | 18.2 | 0.00 | 0.00 | 0.00 | 35 | 1006.7 |
| 20260505194604 | 82 | 205 | 7.8 | 20.9 | 0.00 | 0.00 | 0.00 | 35 | 1006.8 |
| 20260505193603 | 82 | 213 | 6.1 | 23.5 | 0.00 | 0.00 | 0.00 | 37 | 1006.8 |
| 20260505192604 | 83 | 221 | 8.7 | 21.7 | 0.00 | 0.00 | 0.00 | 36 | 1007.0 |
| 20260505191604 | 83 | 202 | 6.1 | 18.2 | 0.00 | 0.00 | 0.00 | 36 | 1007.0 |
| 20260505190604 | 84 | 206 | 7.0 | 15.6 | 0.00 | 0.00 | 0.00 | 36 | 1007.2 |
| 20260505185625 | 84 | 203 | 5.2 | 17.4 | 0.00 | 0.00 | 0.00 | 38 | 1007.4 |
| 20260505184603 | 83 | 262 | 4.3 | 17.4 | 0.00 | 0.00 | 0.00 | 38 | 1007.5 |
| 20260505183625 | 83 | 249 | 8.7 | 18.2 | 0.00 | 0.00 | 0.00 | 37 | 1008.0 |
| 20260505182604 | 83 | 228 | 7.0 | 13.9 | 0.00 | 0.00 | 0.00 | 40 | 1008.0 |
| 20260505181603 | 83 | 182 | 7.0 | 16.5 | 0.00 | 0.00 | 0.00 | 42 | 1007.9 |
| 20260505180604 | 82 | 242 | 9.6 | 18.2 | 0.00 | 0.00 | 0.00 | 41 | 1008.0 |
| 20260505175604 | 82 | 203 | 10.4 | 19.1 | 0.00 | 0.00 | 0.00 | 42 | 1008.1 |
| 20260505174604 | 82 | 213 | 4.3 | 17.4 | 0.00 | 0.00 | 0.00 | 44 | 1008.1 |
| 20260505173603 | 82 | 212 | 2.6 | 11.3 | 0.00 | 0.00 | 0.00 | 45 | 1008.1 |
| 20260505172604 | 81 | 212 | 7.0 | 13.9 | 0.00 | 0.00 | 0.00 | 44 | 1008.2 |
| 20260505171646 | 81 | 254 | 5.2 | 12.2 | 0.00 | 0.00 | 0.00 | 44 | 1008.4 |
| 20260505170625 | 80 | 212 | 6.1 | 15.6 | 0.00 | 0.00 | 0.00 | 47 | 1008.4 |
| 20260505165604 | 80 | 210 | 4.3 | 13.0 | 0.00 | 0.00 | 0.00 | 46 | 1008.6 |
| 20260505163604 | 80 | 179 | 2.6 | 14.8 | 0.00 | 0.00 | 0.00 | 49 | 1008.9 |
| 20260505162604 | 79 | 209 | 8.7 | 13.9 | 0.00 | 0.00 | 0.00 | 48 | 1009.0 |
| 20260505161605 | 78 | 255 | 5.2 | 13.0 | 0.00 | 0.00 | 0.00 | 52 | 1009.2 |
| 20260505160603 | 78 | 176 | 1.7 | 12.2 | 0.00 | 0.00 | 0.00 | 51 | 1009.3 |
| 20260505152604 | 76 | 168 | 5.2 | 10.4 | 0.00 | 0.00 | 0.00 | 54 | 1009.8 |
| 20260505151603 | 76 | 178 | 4.3 | 10.4 | 0.00 | 0.00 | 0.00 | 54 | 1009.9 |
| 20260505150604 | 76 | 191 | 0.9 | 8.7 | 0.00 | 0.00 | 0.00 | 54 | 1009.9 |
| 20260505140604 | 71 | 242 | 3.5 | 8.7 | 0.00 | 0.00 | 0.00 | 61 | 1010.3 |
| 20260505124603 | 62 | 225 | 1.7 | 6.1 | 0.00 | 0.00 | 0.00 | 80 | 1010.1 |
| 20260505123604 | 59 | 236 | 0.0 | 0.0 | 0.00 | 0.00 | 0.00 | 87 | 1010.2 |
| 20260505122604 | 57 | 232 | 0.0 | 0.0 | 0.00 | 0.00 | 0.00 | 93 | 1010.2 |
| 20260505121604 | 54 | 232 | 0.0 | 0.0 | 0.00 | 0.00 | 0.00 | 95 | 1010.4 |
| 20260505120604 | 53 | 232 | 0.0 | 0.0 | 0.00 | 0.00 | 0.00 | 96 | 1010.7 |
| 20260505115604 | 51 | 232 | 0.0 | 0.0 | 0.00 | 0.00 | 0.00 | 95 | 1010.7 |
| 20260505114625 | 50 | 232 | 0.0 | 0.0 | 0.00 | 0.00 | 0.00 | 95 | 1010.7 |
| 20260505113604 | 50 | 232 | 0.0 | 0.0 | 0.00 | 0.00 | 0.00 | 95 | 1010.5 |
| 20260505112645 | 49 | 232 | 0.0 | 0.0 | 0.00 | 0.00 | 0.00 | 95 | 1010.2 |
| 20260505111604 | 49 | 232 | 0.0 | 0.0 | 0.00 | 0.00 | 0.00 | 95 | 1010.2 |
| 20260505110603 | 48 | 231 | 0.0 | 0.0 | 0.00 | 0.00 | 0.00 | 95 | 1010.4 |
| 20260505101603 | 45 | 231 | 0.0 | 0.0 | 0.00 | 0.00 | 0.00 | 94 | 1010.5 |
| 20260505100604 | 45 | 231 | 0.0 | 0.0 | 0.00 | 0.00 | 0.00 | 94 | 1010.3 |
| 20260505095603 | 45 | 231 | 0.0 | 0.0 | 0.00 | 0.00 | 0.00 | 94 | 1010.2 |
| 20260505094604 | 45 | 231 | 0.0 | 0.0 | 0.00 | 0.00 | 0.00 | 93 | 1010.1 |
| 20260505093604 | 45 | 191 | 0.0 | 0.0 | 0.00 | 0.00 | 0.00 | 93 | 1010.2 |
| 20260505092604 | 45 | 204 | 0.0 | 0.0 | 0.00 | 0.00 | 0.00 | 93 | 1010.0 |
| 20260505091603 | 46 | 204 | 0.0 | 0.0 | 0.00 | 0.00 | 0.00 | 93 | 1009.9 |
| 20260505090604 | 46 | 204 | 0.0 | 0.0 | 0.00 | 0.00 | 0.00 | 93 | 1009.7 |
| 20260505085625 | 46 | 204 | 0.0 | 0.0 | 0.00 | 0.00 | 0.00 | 93 | 1009.6 |
| 20260505084603 | 46 | 204 | 0.0 | 0.0 | 0.00 | 0.00 | 0.00 | 92 | 1009.7 |
| 20260505083604 | 46 | 204 | 0.0 | 0.0 | 0.00 | 0.00 | 0.00 | 92 | 1009.7 |
| 20260505082603 | 46 | 204 | 0.0 | 0.0 | 0.00 | 0.00 | 0.00 | 92 | 1009.6 |
| 20260505081604 | 46 | 204 | 0.0 | 0.0 | 0.00 | 0.00 | 0.00 | 92 | 1009.8 |
| 20260505080604 | 46 | 203 | 0.0 | 0.0 | 0.00 | 0.00 | 0.00 | 92 | 1009.7 |
| 20260505075603 | 46 | 203 | 0.0 | 0.0 | 0.00 | 0.00 | 0.00 | 92 | 1009.8 |
| 20260505074604 | 46 | 204 | 0.0 | 0.0 | 0.00 | 0.00 | 0.00 | 91 | 1009.7 |
| 20260505073604 | 46 | 204 | 0.0 | 0.0 | 0.00 | 0.00 | 0.00 | 91 | 1009.7 |
| 20260505072603 | 46 | 204 | 0.0 | 0.0 | 0.00 | 0.00 | 0.00 | 91 | 1009.7 |
| 20260505071603 | 47 | 204 | 0.0 | 0.0 | 0.00 | 0.00 | 0.00 | 91 | 1009.5 |
| 20260505070604 | 47 | 204 | 0.0 | 0.0 | 0.00 | 0.00 | 0.00 | 90 | 1009.6 |
| 20260505065625 | 47 | 204 | 0.0 | 0.0 | 0.00 | 0.00 | 0.00 | 90 | 1009.8 |
| 20260505064604 | 47 | 204 | 0.0 | 0.0 | 0.00 | 0.00 | 0.00 | 90 | 1009.7 |
| 20260505063603 | 47 | 204 | 0.0 | 0.0 | 0.00 | 0.00 | 0.00 | 89 | 1009.8 |
| 20260505062604 | 47 | 203 | 0.0 | 0.0 | 0.00 | 0.00 | 0.00 | 89 | 1009.8 |
| 20260505061604 | 47 | 204 | 0.0 | 0.0 | 0.00 | 0.00 | 0.00 | 88 | 1009.9 |
| 20260505060624 | 48 | 204 | 0.0 | 0.0 | 0.00 | 0.00 | 0.00 | 88 | 1009.8 |
| 20260505055625 | 48 | 204 | 0.0 | 0.0 | 0.00 | 0.00 | 0.00 | 88 | 1010.0 |
| 20260505054604 | 48 | 204 | 0.0 | 0.0 | 0.00 | 0.00 | 0.00 | 88 | 1010.0 |
| 20260505053604 | 48 | 204 | 0.0 | 0.0 | 0.00 | 0.00 | 0.00 | 87 | 1010.1 |
| 20260505052603 | 48 | 204 | 0.0 | 0.0 | 0.00 | 0.00 | 0.00 | 87 | 1010.1 |
| 20260505051604 | 49 | 204 | 0.0 | 0.0 | 0.00 | 0.00 | 0.00 | 86 | 1010.1 |
| 20260505050604 | 49 | 204 | 0.0 | 0.0 | 0.00 | 0.00 | 0.00 | 85 | 1010.2 |
| 20260505041603 | 50 | 204 | 0.0 | 0.0 | 0.00 | 0.00 | 0.00 | 83 | 1010.4 |
| 20260505040603 | 50 | 204 | 0.0 | 0.0 | 0.00 | 0.00 | 0.00 | 82 | 1010.3 |
| 20260505035604 | 51 | 204 | 0.0 | 0.0 | 0.00 | 0.00 | 0.00 | 82 | 1010.3 |
| 20260505034604 | 51 | 203 | 0.0 | 0.0 | 0.00 | 0.00 | 0.00 | 81 | 1010.4 |
| 20260505033603 | 51 | 204 | 0.0 | 0.0 | 0.00 | 0.00 | 0.00 | 80 | 1010.4 |
| 20260505032604 | 52 | 204 | 0.0 | 0.0 | 0.00 | 0.00 | 0.00 | 79 | 1010.5 |
| 20260505031603 | 52 | 204 | 0.0 | 0.0 | 0.00 | 0.00 | 0.00 | 79 | 1010.6 |
| 20260505030604 | 52 | 204 | 0.0 | 0.0 | 0.00 | 0.00 | 0.00 | 78 | 1010.6 |
| 20260505025624 | 53 | 204 | 0.0 | 0.0 | 0.00 | 0.00 | 0.00 | 77 | 1010.6 |
| 20260505024603 | 53 | 204 | 0.0 | 0.0 | 0.00 | 0.00 | 0.00 | 75 | 1010.6 |
| 20260505023625 | 54 | 204 | 0.0 | 0.0 | 0.00 | 0.00 | 0.00 | 76 | 1010.5 |
| 20260505022603 | 54 | 204 | 0.0 | 0.0 | 0.00 | 0.00 | 0.00 | 74 | 1010.6 |
| 20260505021604 | 55 | 204 | 0.0 | 0.0 | 0.00 | 0.00 | 0.00 | 72 | 1010.5 |
| 20260505020603 | 55 | 204 | 0.0 | 0.0 | 0.00 | 0.00 | 0.00 | 71 | 1010.6 |
| 20260505015604 | 56 | 204 | 0.0 | 0.0 | 0.00 | 0.00 | 0.00 | 70 | 1010.5 |
| 20260505014624 | 57 | 204 | 0.0 | 0.0 | 0.00 | 0.00 | 0.00 | 68 | 1010.4 |